STARLINK-1494, 45760

Orbit data source: Space-Track

STARLINK-1494, 45760 is a payload satellite owned by SpaceX/Seattle (US) in LEO that was launched on Sat, 13 Jun 2020 UTC via an FALCON 9 launch vehicle from the Air Force Eastern Test Range (AFETR). Payload-class satellites include a variety of spacecraft equipped with specific instruments for various scientific and technological missions. These include communications satellites like Starlink; space stations such as the ISS; scientific satellites like the Hubble; Earth observation satellites from companies like Planet Labs, Umbra, and HawkEye 360; GPS; miniature CubeSats for education and research; and military/defense satellites.

Loading next visibility...
Identifier
45760, 2020-038AG
Orbit
LEO
Country
Flag of USUS
Related business
Manufacturer
SpaceX/Seattle
Mission
Partially operational Commercial Communications
Bus & Motor
STARLINK, Unknown motor
Mass
260 kg wet, ~248 kg dry
Launch date (UTC)
2020-06-13 (5 years ago)
Launch vehicle
FALCON 9
Launch site
Air Force Eastern Test Range (AFETR)
Object type
Payload
Rocket body
Debris
Shape & HBR
Box + 1 Pan, 4.4 m
Radar Cross Section
13.562 m², Large (>1 m²)

Expand to show TLE details & history
Last TLE update: 9 hours ago

TLE from 9 hours ago
0 STARLINK-1494
1 45760U 20038AG  25258.25003472  .00335731  00000-0  11119-1 0  9996
2 45760  53.0554 281.6547 0001068  72.7883 231.8305 15.29384006  5699
Epoch: 2025-09-15T06:00Z
TLE epoch observation values (Epoch: 2025-09-15T06:00:02.999Z)
Latitude
-41.33265°
Longitude
156.05305°
Altitude
491.813 km
Speed
7.619 km/s
True Right ascension
16h 02m 05s
True Declination
-41° 09' 20"
Sunlit
Object was in daylight at epoch
Visualization orbit readout
Latitude
Unknown
Longitude
Unknown
Altitude
Unknown
Speed
Unknown
Apparent Right ascension
Unknown
Apparent Declination
Unknown
Sunlit
N/A
Visualization observer readout
Local Sidereal Time
07:28:28
Azimuth
Unknown
Elevation
Unknown
Doppler factor
Unknown
Orbital elements
Apogee altitude
478.658 km
Perigee altitude
477.194 km
Semi-major axis
6,856.063 km
Eccentricity
0.00011
Inclination
53.0554°
RAAN
281.6547°
Arg. of periapsis
72.7883°
True anomaly
231.82088°
Mean anomaly
231.8305°
Eccentric anomaly
231.82569°
Mean motion
3.82323 °/min
Orbital period
94.16 mins
BSTAR
0.011119
Loading maneuver chart data...
Computing Atmospheric mass density...

Documentation

Showing up to 5 results
|